Startseite
Über Mich
AHP4
Galerie
Sehschlangen
Tourenbuch
Bookmarks
Elektronik
Bewertung
Geschichten
[Tagesmessung] [Jahreswerte] [Information]

Messwerte vom 03.02.2022

Die letzten Messwerte von 23:58:46 Uhr:
KategorieMesswert
Temperatur [°C]5
Luftdruck [mBar]995
Sonneneinstrahlung0
Wind [km/h]1 aus Südwest
Niederschlag [l/m²]0
rel.Luftfeucht.96.6%
CO2 [ppm]419

Diagramme
Messwerte vom 03.02.2022
Tagesaggregation
KategorieMinimumMaximumSchnittSumme
Temperatur [°C]-174.9875
Luftdruck [mBar]9951005998.7104
Sonneneinstrahlung21059.7583
Wind [km/h]19
rF [%]96.696.696.6
Niederschlag [l/m²]2.575
CO2 [ppm]403891694.2
Einordnung alsFrosttag
Kalter Tag

Messungen an benachbarten Tagen: Zur Jahresaggregation 2022
Tabelle aller Messwerte
UhrzeitTemperatur [°C]Luftdruck [mBar]SonneWind [km/h]RichtungRegen [l/m²]rF [%]CO2 [ppm]
00:01:48 0 1005 0 1 SO 0 96.6 559
00:04:46 0 1005 0 1 SW 0 96.6 559
00:07:46 0 1004 0 1 SW 0 96.6 551
00:10:46 0 1004 0 1 S 0 96.6 553
00:13:47 0 1004 0 0 SO 0 96.6 560
00:16:46 0 1004 0 1 S 0 96.6 556
00:19:49 0 1004 0 1 SW 0 96.6 556
00:22:47 0 1004 0 0 SO 0 96.6 550
00:25:47 0 1004 0 1 SW 0 96.6 553
00:28:46 0 1004 0 0 S 0 96.6 550
00:31:46 0 1004 0 0 W 0 96.6 535
00:34:45 0 1004 0 0 O 0 96.6 535
00:37:46 0 1003 0 0 S 0 96.6 541
00:40:48 0 1004 0 0 S 0 96.6 545
00:43:46 0 1003 0 0 S 0 96.6 553
00:46:49 0 1004 0 0 NW 0 96.6 550
00:49:47 0 1004 0 0 NW 0 96.6 545
00:52:48 0 1004 0 0 NW 0 96.6 541
00:55:46 0 1004 0 0 NW 0 96.6 550
00:58:48 0 1004 0 0 NW 0 96.6 556
01:01:48 -1 1003 0 0 NW 0 96.6 556
01:04:48 -1 1003 0 0 NW 0 96.6 547
01:07:49 -1 1005 0 0 NW 0 96.6 553
01:10:48 -1 1004 0 0 NW 0 96.6 547
01:13:48 -1 1003 0 0 NW 0 96.6 547
01:16:47 -1 1004 0 0 NW 0 96.6 556
01:19:48 -1 1004 0 0 NW 0 96.6 554
01:22:49 0 1004 0 0 NW 0 96.6 560
01:25:49 0 1004 0 0 NW 0 96.6 562
01:28:49 0 1004 0 0 NW 0 96.6 556
01:31:51 0 1004 0 0 NW 0 96.6 558
01:34:47 0 1004 0 0 NW 0 96.6 551
01:37:48 -1 1004 0 4 SO 0 96.6 556
01:40:49 -1 1004 0 0 SO 0 96.6 557
01:43:47 -1 1004 0 0 SO 0 96.6 559
01:46:47 0 1004 0 0 SO 0 96.6 559
01:49:46 0 1003 0 0 N 0 96.6 553
01:52:46 0 1004 0 0 O 0 96.6 551
01:55:48 0 1004 0 0 O 0 96.6 544
01:58:48 0 1004 0 0 S 0 96.6 550
02:01:46 0 1004 0 0 SW 0 96.6 551
02:04:46 1 1003 0 1 N 0 96.6 553
02:07:48 1 1003 0 0 S 0 96.6 550
02:10:49 1 1004 0 0 S 0 96.6 543
02:13:47 1 1003 0 3 S 0 96.6 545
02:16:49 1 1003 0 1 SW 0 96.6 542
02:19:46 1 1004 0 0 S 0 96.6 553
02:22:45 1 1004 0 4 SW 0 96.6 556
02:25:48 2 1003 0 0 SW 0 96.6 560
02:28:49 2 1003 0 0 SW 0 96.6 562
02:31:45 2 1004 0 2 SO 0 96.6 571
02:34:47 2 1003 0 1 SO 0 96.6 560
02:37:47 2 1003 0 1 SO 0 96.6 565
02:40:47 2 1003 0 0 SO 0 96.6 559
02:43:46 2 1003 0 2 S 0 96.6 568
02:46:47 2 1003 0 3 W 0 96.6 573
02:49:47 2 1003 0 1 SO 0 96.6 576
02:52:45 2 1003 0 1 SO 0 96.6 573
02:55:47 2 1003 0 6 SW 0 96.6 577
02:58:46 2 1002 0 1 W 0 96.6 570
03:01:46 2 1003 0 7 S 0 96.6 575
03:04:46 3 1003 0 2 SW 0 96.6 575
03:07:48 3 1003 0 2 SO 0 96.6 580
03:10:48 3 1003 0 5 SO 0 96.6 580
03:13:47 3 1002 0 6 S 0 96.6 583
03:16:49 3 1002 0 2 SW 0 96.6 580
03:19:48 3 1002 0 0 S 0 96.6 587
03:22:48 3 1002 0 2 SW 0 96.6 592
03:25:46 3 1002 0 8 S 0 96.6 583
03:28:48 3 1002 0 3 SW 0 96.6 580
03:31:46 3 1002 0 2 W 0 96.6 582
03:34:46 3 1002 0 2 S 0 96.6 586
03:37:47 3 1002 0 1 NO 0 96.6 587
03:40:49 3 1002 0 6 SO 0 96.6 591
03:43:46 3 1002 0 1 SW 0 96.6 591
03:46:48 3 1002 0 2 SW 0 96.6 586
03:49:48 3 1002 0 3 NW 0 96.6 580
03:52:45 3 1002 0 4 S 0 96.6 585
03:55:48 3 1002 0 3 SW 0 96.6 592
03:58:47 3 1002 0 3 W 0 96.6 603
04:01:47 3 1002 0 1 SW 0 96.6 595
04:04:47 3 1002 0 5 SW 0 96.6 600
04:07:49 4 1002 0 4 SW 0 96.6 600
04:10:47 4 1002 0 3 SW 0 96.6 603
04:13:47 4 1002 0 2 W 0 96.6 601
04:16:48 4 1002 0 3 W 0 96.6 603
04:19:53 4 1002 0 2 NO 0 96.6 607
04:22:49 4 1002 0 5 S 0 96.6 610
04:25:48 4 1002 0 0 SO 0 96.6 615
04:28:46 4 1002 0 2 S 0 96.6 609
04:31:49 4 1002 0 0 SO 0 96.6 604
04:34:47 4 1002 0 2 S 0 96.6 595
04:37:45 4 1002 0 1 S 0 96.6 595
04:40:50 4 1002 0 0 SW 0 96.6 600
04:43:47 4 1002 0 5 S 0 96.6 604
04:46:46 4 1002 0 3 SW 0 96.6 607
04:49:48 4 1002 0 1 S 0 96.6 609
04:52:46 4 1002 0 0 SW 0 96.6 606
04:55:51 4 1002 0 0 NW 0 96.6 606
04:58:48 4 1002 0 0 SW 0 96.6 612
05:01:48 4 1002 0 4 SW 0 96.6 612
05:04:46 4 1002 0 0 S 0 96.6 604
05:07:47 4 1002 0 4 N 0 96.6 603
05:10:48 4 1002 0 0 S 0 96.6 604
05:13:46 4 1002 0 0 NO 0 96.6 601
05:16:47 4 1002 0 2 W 0 96.6 604
05:19:46 4 1002 0 0 S 0 96.6 609
05:22:46 4 1002 0 0 W 0 96.6 615
05:25:46 4 1002 0 3 SO 0 96.6 618
05:28:48 4 1002 0 3 S 0 96.6 621
05:31:47 4 1002 0 6 W 0 96.6 620
05:34:49 4 1002 0 8 SW 0 96.6 621
05:37:49 4 1002 0 6 SW 0 96.6 624
05:40:48 4 1002 0 5 SO 0 96.6 626
05:43:48 4 1002 0 6 SW 0 96.6 629
05:46:46 4 1002 0 7 SW 0 96.6 626
05:49:46 4 1002 0 7 S 0.2575 96.6 626
05:52:47 4 1002 0 2 SW 0 96.6 627
05:55:47 4 1002 0 3 S 0 96.6 626
05:58:46 4 1002 0 4 W 0 96.6 618
06:01:47 4 1002 0 5 SW 0 96.6 620
06:04:49 4 1002 0 5 SO 0 96.6 626
06:07:47 4 1002 0 0 SW 0 96.6 635
06:10:47 4 1002 0 1 S 0.2575 96.6 635
06:13:49 4 1002 0 1 SW 0 96.6 630
06:16:49 4 1001 0 4 SW 0 96.6 625
06:19:47 4 1001 0 3 O 0 96.6 630
06:22:47 4 1002 0 5 SO 0 96.6 632
06:25:48 4 1002 0 6 SO 0 96.6 635
06:28:47 4 1002 0 4 SW 0 96.6 633
06:31:47 5 1001 0 6 SO 0 96.6 635
06:34:49 5 1001 0 6 SO 0 96.6 636
06:37:49 5 1001 0 19 SO 0.2575 96.6 638
06:40:48 5 1001 0 3 SW 0 96.6 638
06:43:47 5 1002 0 4 S 0 96.6 640
06:46:44 5 1001 0 2 SO 0 96.6 644
06:49:46 5 1001 0 3 SO 0 96.6 644
06:52:46 5 1000 0 1 SO 0 96.6 647
06:55:46 5 1002 0 1 S 0 96.6 651
06:58:45 5 1001 0 3 NW 0 96.6 655
07:01:46 5 1001 0 1 W 0 96.6 659
07:04:48 5 1001 0 7 SW 0 96.6 655
07:07:46 5 1002 0 2 SO 0 96.6 644
07:10:46 5 1001 0 2 S 0.2575 96.6 642
07:13:45 5 1001 0 3 SW 0 96.6 641
07:16:48 5 1001 0 9 NW 0 96.6 644
07:19:46 5 1001 0 1 SO 0 96.6 651
07:22:46 5 1000 0 1 W 0 96.6 656
07:25:47 5 1001 0 11 SW 0 96.6 672
07:28:46 5 1001 0 3 S 0 96.6 671
07:31:48 5 1001 0 5 S 0 96.6 680
07:34:45 5 1001 3 5 SW 0 96.6 682
07:37:46 5 1001 4 3 SW 0 96.6 687
07:40:46 5 1001 6 2 S 0 96.6 685
07:43:47 5 1001 8 1 S 0 96.6 690
07:46:49 5 1001 10 1 SO 0 96.6 692
07:49:48 5 1001 12 2 SW 0 96.6 700
07:52:46 5 1001 20 1 S 0 96.6 700
07:55:47 5 1000 24 2 SW 0 96.6 700
07:58:48 5 1000 27 2 S 0 96.6 702
08:01:46 5 1001 34 5 O 0.2575 96.6 718
08:04:48 5 1001 41 2 S 0 96.6 713
08:07:47 5 999 46 1 S 0 96.6 725
08:10:47 5 1000 65 2 SO 0 96.6 723
08:13:46 5 1000 71 4 S 0 96.6 723
08:16:47 5 1000 76 2 S 0 96.6 720
08:19:51 5 1000 85 4 SW 0 96.6 723
08:22:48 5 1001 98 2 SW 0 96.6 721
08:25:48 5 1001 109 2 SW 0 96.6 727
08:28:48 5 1000 116 5 S 0 96.6 732
08:31:48 5 1000 123 4 S 0 96.6 736
08:34:46 5 1000 131 2 S 0 96.6 731
08:37:49 5 1000 134 1 SW 0 96.6 725
08:40:51 5 1000 141 1 NW 0 96.6 729
08:43:48 5 999 145 3 S 0 96.6 733
08:46:46 5 1000 148 2 W 0 96.6 738
08:49:47 5 1000 143 5 SO 0 96.6 744
08:52:46 5 999 137 15 O 0 96.6 743
08:55:47 5 999 134 3 SW 0 96.6 743
08:58:47 5 999 132 2 N 0 96.6 743
09:01:48 5 1000 141 2 SW 0 96.6 747
09:04:46 5 999 148 3 W 0 96.6 759
09:07:47 5 999 154 2 SW 0 96.6 760
09:10:49 6 1000 149 10 SW 0 96.6 756
09:13:46 6 999 148 2 S 0 96.6 764
09:16:47 6 999 147 2 S 0 96.6 765
09:19:49 6 1000 155 3 NW 0 96.6 771
09:22:46 6 999 155 1 SO 0 96.6 766
09:25:50 6 1000 163 3 S 0 96.6 777
09:28:46 6 1000 157 5 O 0 96.6 776
09:31:49 6 999 162 7 SW 0 96.6 771
09:34:47 6 999 161 3 SW 0 96.6 771
09:37:50 6 1000 164 2 SO 0 96.6 767
09:40:47 6 999 160 0 W 0 96.6 779
09:43:47 6 1000 166 0 SO 0.2575 96.6 779
09:46:45 6 1000 175 3 S 0 96.6 779
09:49:48 6 1000 177 2 S 0 96.6 779
09:52:47 6 999 186 2 S 0 96.6 785
09:55:48 6 999 186 2 SO 0 96.6 784
09:58:47 6 999 183 3 S 0 96.6 782
10:01:47 6 999 185 5 S 0 96.6 785
10:04:49 6 999 193 2 SW 0 96.6 787
10:07:47 6 999 188 6 S 0 96.6 779
10:10:50 6 999 184 0 SW 0 96.6 783
10:13:46 6 999 186 1 S 0 96.6 794
10:16:47 6 999 184 10 O 0 96.6 797
10:19:48 6 999 189 3 S 0 96.6 800
10:22:49 6 999 189 8 SW 0 96.6 797
10:25:50 6 999 191 2 SW 0.2575 96.6 800
10:28:46 6 999 191 9 S 0 96.6 791
10:31:48 6 999 190 4 S 0 96.6 788
10:34:48 6 999 189 4 S 0 96.6 785
10:37:46 6 999 193 2 S 0 96.6 793
10:40:48 6 999 192 5 SW 0 96.6 799
10:43:48 6 999 196 1 SO 0 96.6 794
10:46:46 6 999 197 2 0 96.6 796
10:49:46 6 999 202 4 O 0 96.6 796
10:52:48 6 999 205 3 S 0 96.6 803
10:55:47 6 999 207 3 S 0.2575 96.6 811
10:58:46 7 998 209 0 W 0 96.6 816
11:01:48 7 999 210 5 SW 0 96.6 817
11:04:47 7 999 210 4 S 0 96.6 813
11:07:47 7 999 209 1 S 0 96.6 808
11:10:46 7 999 208 3 S 0 96.6 814
11:13:48 7 999 201 5 SW 0 96.6 814
11:16:47 7 999 192 6 NW 0 96.6 817
11:19:50 7 998 190 4 SW 0 96.6 826
11:22:47 7 999 191 6 SW 0 96.6 825
11:25:53 7 999 196 4 S 0 96.6 823
11:28:49 7 999 202 4 SW 0 96.6 818
11:31:48 7 999 204 6 W 0 96.6 815
11:34:48 7 999 205 6 SW 0 96.6 816
11:37:49 7 999 202 2 SW 0.2575 96.6 821
11:40:49 7 999 198 5 W 0 96.6 824
11:43:48 7 998 199 4 0 96.6 828
11:46:47 7 999 196 3 SW 0 96.6 814
11:49:48 7 998 200 3 SO 0 96.6 829
11:52:47 7 999 207 3 SW 0 96.6 828
11:55:50 7 999 207 2 NW 0 96.6 832
11:58:47 7 998 206 3 O 0 96.6 835
12:01:49 7 998 194 6 SO 0 96.6 835
12:04:48 7 998 190 1 SW 0 96.6 837
12:07:49 7 999 198 5 SW 0 96.6 837
12:10:48 7 998 203 1 SO 0 96.6 841
12:13:50 7 998 207 1 S 0 96.6 844
12:16:49 7 998 208 3 SW 0 96.6 848
12:19:46 7 998 207 3 S 0 96.6 834
12:22:48 7 999 202 1 SW 0 96.6 826
12:25:47 7 999 198 2 W 0 96.6 825
12:28:50 7 998 201 6 SW 0 96.6 835
12:31:48 7 998 199 2 SO 0 96.6 843
12:34:49 7 998 201 3 SO 0 96.6 848
12:37:48 7 999 198 3 S 0 96.6 849
12:40:49 7 998 196 2 S 0 96.6 845
12:43:49 7 998 195 1 SO 0 96.6 842
12:46:50 7 998 195 2 O 0 96.6 846
12:49:49 7 999 192 2 SO 0 96.6 847
12:52:46 7 998 188 2 N 0 96.6 853
12:55:47 7 998 179 6 SW 0 96.6 856
12:58:46 7 998 182 5 S 0 96.6 850
13:01:50 7 998 176 1 W 0 96.6 852
13:04:48 7 998 171 3 SO 0 96.6 845
13:07:48 7 998 161 7 SW 0 96.6 845
13:10:49 7 998 162 3 SO 0 96.6 844
13:13:53 7 998 161 3 SW 0 96.6 850
13:16:46 7 998 159 2 0 96.6 853
13:19:48 7 998 176 0 S 0 96.6 853
13:22:48 7 998 183 3 S 0 96.6 853
13:25:47 7 998 184 2 S 0 96.6 856
13:28:49 7 998 179 3 S 0 96.6 862
13:31:46 7 998 179 2 SO 0 96.6 870
13:34:49 7 998 179 3 SW 0 96.6 873
13:37:50 7 998 178 4 SW 0 96.6 868
13:40:47 7 998 175 6 S 0 96.6 874
13:43:49 7 998 177 2 W 0 96.6 877
13:46:47 7 998 173 0 S 0 96.6 872
13:49:48 7 998 164 3 SW 0 96.6 872
13:52:48 7 998 168 3 SO 0 96.6 856
13:55:47 7 998 167 1 SW 0 96.6 856
13:58:48 7 998 160 6 SO 0 96.6 851
14:01:49 7 997 156 1 NW 0 96.6 856
14:04:49 7 998 150 1 SO 0 96.6 850
14:07:48 7 998 148 7 SW 0 96.6 854
14:10:49 7 998 148 3 S 0 96.6 862
14:13:48 7 998 153 1 SW 0 96.6 863
14:16:47 7 998 160 0 SO 0 96.6 864
14:19:49 7 998 154 0 SW 0 96.6 856
14:22:49 7 998 155 3 SO 0 96.6 859
14:25:48 7 997 155 1 W 0 96.6 857
14:28:48 7 998 159 5 W 0 96.6 867
14:31:51 7 998 160 1 SW 0 96.6 852
14:34:49 7 998 156 2 SO 0 96.6 844
14:37:45 7 997 160 1 W 0 96.6 843
14:40:49 7 998 156 1 O 0 96.6 852
14:43:50 7 998 160 1 SW 0 96.6 861
14:46:47 7 997 170 1 S 0 96.6 869
14:49:47 7 997 162 5 W 0 96.6 875
14:52:46 7 997 158 3 W 0 96.6 870
14:55:48 7 998 153 3 W 0 96.6 862
14:58:48 7 998 152 0 S 0 96.6 862
15:01:48 7 997 149 1 S 0 96.6 867
15:04:48 7 997 165 0 W 0 96.6 867
15:07:49 7 997 165 0 SO 0 96.6 870
15:10:47 7 997 164 0 O 0 96.6 873
15:13:47 7 997 152 0 S 0 96.6 879
15:16:47 7 997 151 1 SO 0 96.6 873
15:19:47 7 997 148 0 S 0 96.6 873
15:22:47 7 996 149 0 S 0 96.6 866
15:25:49 7 996 149 0 S 0 96.6 871
15:28:49 7 996 152 3 SO 0 96.6 865
15:31:50 7 997 162 0 SO 0 96.6 865
15:34:48 7 996 164 0 S 0 96.6 862
15:37:46 7 996 160 0 S 0 96.6 870
15:40:46 7 997 157 5 S 0 96.6 878
15:43:47 7 996 174 2 SO 0 96.6 879
15:46:46 7 997 181 1 S 0 96.6 873
15:49:49 7 997 174 2 S 0 96.6 872
15:52:47 7 996 161 3 W 0 96.6 867
15:55:47 7 996 152 1 S 0 96.6 868
15:58:48 7 996 135 0 S 0 96.6 869
16:01:47 7 995 131 1 S 0 96.6 863
16:04:47 7 996 103 0 S 0 96.6 867
16:07:49 7 996 92 0 SO 0 96.6 876
16:10:47 7 996 91 0 S 0 96.6 875
16:13:49 7 996 79 2 SO 0 96.6 884
16:16:48 7 996 92 0 S 0 96.6 876
16:19:49 7 996 91 0 W 0 96.6 884
16:22:50 7 996 86 0 SW 0 96.6 876
16:25:46 7 996 75 0 S 0 96.6 870
16:28:47 7 996 75 0 S 0 96.6 865
16:31:48 7 996 71 1 SO 0 96.6 858
16:34:48 7 996 81 1 S 0 96.6 867
16:37:49 7 996 70 0 W 0 96.6 875
16:40:48 7 996 85 0 SW 0 96.6 878
16:43:46 7 996 81 0 S 0 96.6 875
16:46:47 7 995 57 0 SW 0 96.6 872
16:49:47 7 996 47 1 S 0 96.6 870
16:52:48 7 996 46 0 SO 0 96.6 878
16:55:47 7 996 36 0 SW 0 96.6 881
16:58:46 7 996 47 0 SW 0 96.6 885
17:01:48 7 995 32 1 SO 0 96.6 891
17:04:46 7 995 27 0 O 0 96.6 881
17:07:50 7 996 20 0 S 0 96.6 879
17:10:48 7 995 21 0 SO 0 96.6 880
17:13:47 7 996 17 0 S 0 96.6 889
17:16:47 7 996 10 0 SO 0 96.6 889
17:19:46 7 995 7 0 S 0 96.6 885
17:22:47 7 996 4 0 S 0 96.6 885
17:25:45 7 996 3 0 S 0 96.6 878
17:28:46 7 995 0 0 S 0 96.6 869
17:31:46 7 996 0 1 SO 0 96.6 876
17:34:46 7 996 0 0 SO 0 96.6 887
17:37:47 7 996 0 0 NW 0 96.6 870
17:40:48 7 995 0 3 NW 0 96.6 858
17:43:45 7 995 0 2 W 0 96.6 870
17:46:46 7 996 0 2 W 0 96.6 875
17:49:48 7 996 0 12 NO 0 96.6 861
17:52:44 7 996 0 5 W 0 96.6 849
17:55:47 6 996 0 6 NW 0 96.6 851
17:58:46 6 996 0 5 W 0 96.6 847
18:01:45 6 996 0 2 W 0 96.6 841
18:04:45 6 995 0 2 0 96.6 831
18:07:47 6 995 0 6 SW 0 96.6 826
18:10:48 6 995 0 5 W 0 96.6 819
18:13:47 6 995 0 5 SW 0 96.6 805
18:16:47 6 995 0 2 S 0 96.6 805
18:19:47 6 995 0 4 SO 0 96.6 812
18:22:47 6 995 0 0 O 0 96.6 808
18:25:48 6 995 0 0 SW 0 96.6 805
18:28:45 6 996 0 1 S 0 96.6 803
18:31:47 6 995 0 0 W 0 96.6 799
18:34:46 6 995 0 2 SO 0 96.6 794
18:37:49 6 995 0 0 SW 0 96.6 789
18:40:46 6 996 0 0 S 0 96.6 788
18:43:47 6 995 0 1 S 0 96.6 785
18:46:45 6 995 0 2 O 0 96.6 776
18:49:46 6 995 0 2 W 0 96.6 765
18:52:45 6 996 0 2 SO 0 96.6 764
18:55:47 6 995 0 1 W 0 96.6 764
18:58:45 6 995 0 2 S 0 96.6 769
19:01:46 6 995 0 2 N 0 96.6 764
19:04:44 6 995 0 0 O 0 96.6 755
19:07:49 6 995 0 1 SW 0 96.6 753
19:10:45 6 995 0 0 O 0 96.6 743
19:13:45 6 995 0 0 S 0 96.6 741
19:16:46 6 995 0 0 SO 0 96.6 741
19:19:48 6 995 0 1 SW 0 96.6 742
19:22:46 6 995 0 1 O 0 96.6 734
19:25:46 6 995 0 3 S 0 96.6 741
19:28:48 6 995 0 2 S 0 96.6 732
19:31:47 6 995 0 1 S 0 96.6 723
19:34:47 6 995 0 0 S 0 96.6 725
19:37:48 6 995 0 2 SO 0 96.6 719
19:40:49 6 995 0 6 SO 0 96.6 720
19:43:44 6 995 0 2 S 0 96.6 721
19:46:45 6 995 0 2 SO 0 96.6 715
19:49:46 6 995 0 1 NW 0 96.6 714
19:52:45 6 995 0 0 SO 0 96.6 715
19:55:47 6 995 0 4 SW 0 96.6 708
19:58:49 6 995 0 2 SW 0 96.6 702
20:01:47 6 995 0 2 SO 0 96.6 697
20:04:48 6 995 0 1 S 0 96.6 698
20:07:46 6 995 0 0 SO 0 96.6 700
20:10:47 6 995 0 0 SO 0 96.6 699
20:13:49 6 995 0 1 SW 0 96.6 686
20:16:45 6 996 0 0 S 0 96.6 674
20:19:47 6 995 0 2 SO 0 96.6 669
20:22:46 6 995 0 1 SW 0 96.6 671
20:25:44 6 995 0 2 S 0 96.6 676
20:28:49 6 995 0 1 SW 0 96.6 676
20:31:49 5 995 0 1 S 0 96.6 670
20:34:45 5 995 0 0 S 0 96.6 667
20:37:46 5 995 0 6 SW 0 96.6 664
20:40:46 5 995 0 0 O 0 96.6 664
20:43:47 5 995 0 0 NO 0 96.6 659
20:46:45 5 995 0 3 SO 0 96.6 653
20:49:48 5 995 0 0 S 0 96.6 653
20:52:45 5 995 0 3 S 0 96.6 651
20:55:49 5 995 0 4 NW 0.2575 96.6 651
20:58:47 5 995 0 3 SO 0 96.6 653
21:01:47 5 995 0 1 SO 0 96.6 652
21:04:47 5 995 0 3 SO 0 96.6 644
21:07:46 5 995 0 4 S 0 96.6 638
21:10:47 5 995 0 2 O 0 96.6 636
21:13:45 5 995 0 5 SO 0 96.6 635
21:16:46 5 995 0 4 SW 0 96.6 635
21:19:45 5 995 0 1 S 0 96.6 634
21:22:47 5 995 0 3 NW 0 96.6 632
21:25:46 5 995 0 2 S 0 96.6 630
21:28:47 5 995 0 0 W 0 96.6 620
21:31:46 5 995 0 0 S 0 96.6 618
21:34:46 5 995 0 0 SO 0 96.6 519
21:37:46 5 995 0 0 O 0 96.6 513
21:40:46 5 995 0 0 S 0 96.6 525
21:43:44 5 995 0 1 S 0 96.6 527
21:46:46 5 995 0 4 S 0 96.6 514
21:49:46 5 995 0 6 O 0 96.6 518
21:52:48 5 995 0 2 SO 0 96.6 517
21:55:48 5 995 0 3 SO 0 96.6 461
21:58:45 5 995 0 0 W 0 96.6 407
22:01:47 5 995 0 2 SO 0 96.6 404
22:04:47 5 995 0 2 SO 0 96.6 404
22:07:45 5 995 0 1 SO 0 96.6 407
22:10:47 5 995 0 0 NW 0 96.6 405
22:13:46 5 995 0 1 0 96.6 404
22:16:46 5 995 0 1 SO 0 96.6 404
22:19:46 5 995 0 0 SO 0 96.6 407
22:22:47 5 995 0 0 SW 0 96.6 407
22:25:45 5 995 0 1 S 0 96.6 404
22:28:46 5 995 0 2 S 0 96.6 407
22:31:46 5 995 0 1 S 0 96.6 403
22:34:47 5 995 0 2 S 0 96.6 404
22:37:49 5 995 0 2 SW 0 96.6 407
22:40:46 5 995 0 3 W 0 96.6 404
22:43:46 5 995 0 2 S 0 96.6 406
22:46:46 5 995 0 3 NO 0 96.6 404
22:49:45 5 995 0 4 W 0 96.6 404
22:52:45 5 995 0 1 S 0 96.6 407
22:55:46 5 995 0 0 SW 0 96.6 404
22:58:45 5 995 0 1 SO 0 96.6 406
23:01:47 5 995 0 0 SW 0 96.6 408
23:04:45 5 995 0 1 S 0 96.6 404
23:07:46 5 995 0 0 N 0 96.6 403
23:10:49 5 995 0 1 SW 0 96.6 403
23:13:45 5 995 0 1 S 0 96.6 407
23:16:45 5 995 0 8 SW 0 96.6 404
23:19:48 5 995 0 2 SW 0 96.6 407
23:22:46 5 995 0 2 S 0 96.6 407
23:25:45 5 995 0 1 S 0 96.6 407
23:28:47 5 995 0 2 S 0 96.6 409
23:31:46 5 995 0 3 S 0 96.6 407
23:34:47 5 995 0 3 SW 0 96.6 406
23:37:47 5 995 0 1 S 0 96.6 406
23:40:45 5 995 0 3 S 0 96.6 407
23:43:46 5 995 0 4 S 0 96.6 418
23:46:47 5 995 0 3 SO 0 96.6 419
23:49:45 5 995 0 3 O 0 96.6 418
23:52:45 5 995 0 2 S 0 96.6 413
23:55:44 5 995 0 0 O 0 96.6 421
23:58:46 5 995 0 1 SW 0 96.6 419

Letzte Änderung : 22-Jul-2022
Copyright Jens Köhler, Wolfsburg, Obere Dorfstraße 10d